Time,TemperatureF,DewpointF,PressureIn,WindDirection,WindDirectionDegrees,WindSpeedMPH,WindSpeedGustMPH,Humidity,HourlyPrecipIn,Conditions,Clouds,dailyrainin,SoftwareType,DateUTC
2013-02-12 00:01:00,67.0,67.0,30.12,South,183,2.0,4.0,100,99.99,,,-99.99,,2013-02-12 05:01:00,
2013-02-12 00:11:00,67.0,67.0,30.12,South,183,3.0,4.0,100,99.99,,,-99.99,,2013-02-12 05:11:00,
2013-02-12 00:21:00,67.0,67.0,30.12,South,183,3.0,4.0,100,99.99,,,-99.99,,2013-02-12 05:21:00,
2013-02-12 00:32:00,67.0,67.0,30.12,South,183,3.0,4.0,100,99.99,,,-99.99,,2013-02-12 05:32:00,
2013-02-12 00:42:00,67.0,67.0,30.12,South,183,3.0,4.0,100,99.99,,,-99.99,,2013-02-12 05:42:00,
2013-02-12 00:52:00,67.0,67.0,30.11,SSE,167,4.0,6.0,100,99.99,,,-99.99,,2013-02-12 05:52:00,
2013-02-12 01:01:00,67.0,67.0,30.11,South,176,5.0,7.0,100,99.99,,,-99.99,,2013-02-12 06:01:00,
2013-02-12 01:12:00,67.0,67.0,30.11,South,173,6.0,7.0,100,99.99,,,-99.99,,2013-02-12 06:12:00,
2013-02-12 01:22:00,67.0,67.0,30.11,South,173,6.0,7.0,100,99.99,,,-99.99,,2013-02-12 06:22:00,
2013-02-12 01:32:00,67.0,67.0,30.11,South,177,6.0,9.0,100,99.99,,,-99.99,,2013-02-12 06:32:00,
2013-02-12 01:42:00,67.0,67.0,30.10,South,170,4.0,5.0,100,99.99,,,-99.99,,2013-02-12 06:42:00,
2013-02-12 01:52:00,67.0,67.0,30.10,South,170,4.0,5.0,100,99.99,,,-99.99,,2013-02-12 06:52:00,
2013-02-12 02:01:00,66.0,66.0,30.10,South,174,5.0,7.0,100,99.99,,,-99.99,,2013-02-12 07:01:00,
2013-02-12 02:11:00,66.0,66.0,30.09,South,180,4.0,6.0,100,99.99,,,-99.99,,2013-02-12 07:11:00,
2013-02-12 02:21:00,66.0,66.0,30.09,South,180,4.0,6.0,100,99.99,,,-99.99,,2013-02-12 07:21:00,
2013-02-12 02:32:00,66.0,66.0,30.09,South,177,2.0,4.0,100,99.99,,,-99.99,,2013-02-12 07:32:00,
2013-02-12 02:42:00,66.0,66.0,30.09,South,177,2.0,4.0,100,99.99,,,-99.99,,2013-02-12 07:42:00,
2013-02-12 02:52:00,66.0,66.0,30.09,South,173,0.0,2.0,100,99.99,,,-99.99,,2013-02-12 07:52:00,
2013-02-12 03:01:00,65.0,65.0,30.08,North,0,0.0,0.0,100,99.99,,,-99.99,,2013-02-12 08:01:00,
2013-02-12 03:11:00,65.0,65.0,30.08,North,0,0.0,0.0,100,99.99,,,-99.99,,2013-02-12 08:11:00,
2013-02-12 03:21:00,64.0,64.0,30.08,South,181,1.0,2.0,100,99.99,,,-99.99,,2013-02-12 08:21:00,
2013-02-12 03:32:00,64.0,64.0,30.08,South,181,1.0,2.0,100,99.99,,,-99.99,,2013-02-12 08:32:00,
2013-02-12 03:42:00,64.0,64.0,30.08,South,181,1.0,2.0,100,99.99,,,-99.99,,2013-02-12 08:42:00,
2013-02-12 03:52:00,63.0,63.0,30.08,North,0,0.0,0.0,100,99.99,,,-99.99,,2013-02-12 08:52:00,
2013-02-12 04:02:00,63.0,63.0,30.08,North,0,0.0,0.0,100,99.99,,,-99.99,,2013-02-12 09:02:00,
2013-02-12 04:11:00,63.0,63.0,30.07,South,177,3.0,4.0,100,99.99,,,-99.99,,2013-02-12 09:11:00,
2013-02-12 04:21:00,63.0,63.0,30.07,South,177,3.0,4.0,100,99.99,,,-99.99,,2013-02-12 09:21:00,
2013-02-12 04:32:00,63.0,63.0,30.07,South,177,4.0,5.0,100,99.99,,,-99.99,,2013-02-12 09:32:00,
2013-02-12 04:42:00,63.0,63.0,30.07,South,187,3.0,5.0,100,99.99,,,-99.99,,2013-02-12 09:42:00,
2013-02-12 04:52:00,63.0,63.0,30.07,South,187,3.0,5.0,100,99.99,,,-99.99,,2013-02-12 09:52:00,
2013-02-12 05:01:00,64.0,64.0,30.07,South,177,4.0,5.0,100,99.99,,,-99.99,,2013-02-12 10:01:00,
2013-02-12 05:11:00,64.0,64.0,30.07,South,183,3.0,6.0,100,99.99,,,-99.99,,2013-02-12 10:11:00,
2013-02-12 05:21:00,64.0,64.0,30.07,South,183,3.0,6.0,100,99.99,,,-99.99,,2013-02-12 10:21:00,
2013-02-12 05:32:00,64.0,64.0,30.07,SSE,167,5.0,6.0,100,99.99,,,-99.99,,2013-02-12 10:32:00,
2013-02-12 05:43:00,64.0,64.0,30.07,SSE,167,5.0,6.0,100,99.99,,,-99.99,,2013-02-12 10:43:00,
2013-02-12 05:52:00,64.0,64.0,30.07,South,173,4.0,6.0,100,99.99,,,-99.99,,2013-02-12 10:52:00,
2013-02-12 06:01:00,64.0,64.0,30.08,South,169,5.0,6.0,100,99.99,,,-99.99,,2013-02-12 11:01:00,
2013-02-12 06:11:00,64.0,64.0,30.07,South,177,6.0,7.0,100,99.99,,,-99.99,,2013-02-12 11:11:00,
2013-02-12 06:22:00,64.0,64.0,30.07,South,177,6.0,7.0,100,99.99,,,-99.99,,2013-02-12 11:22:00,
2013-02-12 06:32:00,64.0,64.0,30.07,SSE,167,6.0,7.0,100,99.99,,,-99.99,,2013-02-12 11:32:00,
2013-02-12 06:42:00,64.0,64.0,30.07,SSE,167,6.0,7.0,100,99.99,,,-99.99,,2013-02-12 11:42:00,
2013-02-12 06:52:00,64.0,64.0,30.08,South,181,5.0,6.0,100,99.99,,,-99.99,,2013-02-12 11:52:00,
2013-02-12 07:01:00,64.0,64.0,30.08,South,181,4.0,6.0,100,99.99,,,-99.99,,2013-02-12 12:01:00,
2013-02-12 07:11:00,63.0,63.0,30.08,South,177,4.0,6.0,100,99.99,,,-99.99,,2013-02-12 12:11:00,
2013-02-12 07:21:00,63.0,63.0,30.08,South,177,4.0,6.0,100,99.99,,,-99.99,,2013-02-12 12:21:00,
2013-02-12 07:32:00,63.0,63.0,30.09,South,183,4.0,5.0,100,99.99,,,-99.99,,2013-02-12 12:32:00,
2013-02-12 07:42:00,63.0,63.0,30.10,South,177,3.0,5.0,100,99.99,,,-99.99,,2013-02-12 12:42:00,
2013-02-12 07:53:00,63.0,63.0,30.10,South,177,3.0,5.0,100,99.99,,,-99.99,,2013-02-12 12:53:00,
2013-02-12 08:01:00,64.0,64.0,30.10,South,170,3.0,4.0,100,99.99,,,-99.99,,2013-02-12 13:01:00,
2013-02-12 08:11:00,64.0,64.0,30.10,SSE,149,2.0,4.0,100,99.99,,,-99.99,,2013-02-12 13:11:00,
2013-02-12 08:22:00,64.0,64.0,30.10,SSE,149,2.0,4.0,100,99.99,,,-99.99,,2013-02-12 13:22:00,
2013-02-12 08:32:00,64.0,64.0,30.10,SSE,153,2.0,4.0,100,99.99,,,-99.99,,2013-02-12 13:32:00,
2013-02-12 08:42:00,64.0,64.0,30.10,SSE,153,2.0,4.0,100,99.99,,,-99.99,,2013-02-12 13:42:00,
2013-02-12 08:52:00,65.0,65.0,30.11,North,0,0.0,0.0,100,99.99,,,-99.99,,2013-02-12 13:52:00,
2013-02-12 09:01:00,66.0,66.0,30.11,South,177,5.0,9.0,100,99.99,,,-99.99,,2013-02-12 14:01:00,
2013-02-12 09:12:00,66.0,66.0,30.11,South,177,5.0,9.0,100,99.99,,,-99.99,,2013-02-12 14:12:00,
2013-02-12 09:21:00,67.0,67.0,30.11,South,176,6.0,8.0,100,99.99,,,-99.99,,2013-02-12 14:21:00,
2013-02-12 09:32:00,68.0,68.0,30.11,SSE,163,6.0,10.0,100,99.99,,,-99.99,,2013-02-12 14:32:00,
2013-02-12 09:42:00,68.0,68.0,30.11,SSE,163,6.0,10.0,100,99.99,,,-99.99,,2013-02-12 14:42:00,
2013-02-12 09:52:00,70.0,70.0,30.11,SSE,163,7.0,12.0,100,99.99,,,-99.99,,2013-02-12 14:52:00,
2013-02-12 10:02:00,72.0,72.0,30.11,SSW,212,5.0,9.0,100,99.99,,,-99.99,,2013-02-12 15:02:00,
2013-02-12 10:11:00,74.0,71.0,30.11,South,179,7.0,13.0,89,99.99,,,-99.99,,2013-02-12 15:11:00,
2013-02-12 10:21:00,74.0,71.0,30.11,South,179,7.0,13.0,89,99.99,,,-99.99,,2013-02-12 15:21:00,
2013-02-12 10:32:00,75.0,69.0,30.11,SSW,198,6.0,13.0,83,99.99,,,-99.99,,2013-02-12 15:32:00,
2013-02-12 10:42:00,75.0,69.0,30.11,SSW,198,6.0,13.0,83,99.99,,,-99.99,,2013-02-12 15:42:00,
2013-02-12 10:52:00,76.0,68.0,30.11,SW,219,7.0,15.0,76,99.99,,,-99.99,,2013-02-12 15:52:00,
2013-02-12 11:01:00,77.0,69.0,30.11,SSW,205,6.0,13.0,76,99.99,,,-99.99,,2013-02-12 16:01:00,
2013-02-12 11:11:00,77.0,69.0,30.11,SSW,205,6.0,13.0,76,99.99,,,-99.99,,2013-02-12 16:11:00,
2013-02-12 11:22:00,78.0,67.0,30.11,SW,217,7.0,12.0,68,99.99,,,-99.99,,2013-02-12 16:22:00,
2013-02-12 11:32:00,79.0,68.0,30.10,WSW,257,7.0,12.0,69,99.99,,,-99.99,,2013-02-12 16:32:00,
2013-02-12 11:42:00,79.0,68.0,30.10,WSW,257,7.0,12.0,69,99.99,,,-99.99,,2013-02-12 16:42:00,
2013-02-12 11:52:00,79.0,67.0,30.09,SW,218,8.0,15.0,67,99.99,,,-99.99,,2013-02-12 16:52:00,
2013-02-12 12:01:00,79.0,66.0,30.09,SW,218,7.0,13.0,64,99.99,,,-99.99,,2013-02-12 17:01:00,
2013-02-12 12:12:00,79.0,66.0,30.08,WSW,250,6.0,15.0,65,99.99,,,-99.99,,2013-02-12 17:12:00,
2013-02-12 12:21:00,79.0,66.0,30.08,WSW,250,6.0,15.0,65,99.99,,,-99.99,,2013-02-12 17:21:00,
2013-02-12 12:32:00,81.0,64.0,30.08,SW,217,6.0,12.0,56,99.99,,,-99.99,,2013-02-12 17:32:00,
2013-02-12 12:42:00,81.0,64.0,30.08,SW,217,6.0,12.0,56,99.99,,,-99.99,,2013-02-12 17:42:00,
2013-02-12 12:52:00,80.0,62.0,30.07,SW,214,6.0,11.0,55,99.99,,,-99.99,,2013-02-12 17:52:00,
2013-02-12 13:01:00,80.0,62.0,30.06,SW,219,7.0,13.0,55,99.99,,,-99.99,,2013-02-12 18:01:00,
2013-02-12 13:11:00,82.0,65.0,30.05,WSW,240,7.0,13.0,56,99.99,,,-99.99,,2013-02-12 18:11:00,
2013-02-12 13:23:00,82.0,65.0,30.05,WSW,240,7.0,13.0,56,99.99,,,-99.99,,2013-02-12 18:23:00,
2013-02-12 13:32:00,83.0,63.0,30.04,WSW,239,5.0,10.0,51,99.99,,,-99.99,,2013-02-12 18:32:00,
2013-02-12 13:41:00,83.0,63.0,30.02,SW,222,8.0,14.0,51,99.99,,,-99.99,,2013-02-12 18:41:00,
2013-02-12 13:52:00,83.0,63.0,30.02,SW,222,8.0,14.0,51,99.99,,,-99.99,,2013-02-12 18:52:00,
2013-02-12 14:02:00,82.0,64.0,30.01,SW,221,8.0,15.0,54,99.99,,,-99.99,,2013-02-12 19:02:00,
2013-02-12 14:11:00,82.0,62.0,30.00,SW,218,7.0,13.0,51,99.99,,,-99.99,,2013-02-12 19:11:00,
2013-02-12 14:21:00,82.0,62.0,30.00,SW,218,7.0,13.0,51,99.99,,,-99.99,,2013-02-12 19:21:00,
2013-02-12 14:31:00,83.0,64.0,29.99,SW,219,5.0,10.0,52,99.99,,,-99.99,,2013-02-12 19:31:00,
2013-02-12 14:41:00,81.0,65.0,29.99,SSW,204,5.0,8.0,58,99.99,,,-99.99,,2013-02-12 19:41:00,
2013-02-12 14:52:00,81.0,65.0,29.99,SSW,204,5.0,8.0,58,99.99,,,-99.99,,2013-02-12 19:52:00,
2013-02-12 15:01:00,83.0,64.0,29.98,SW,233,6.0,15.0,53,99.99,,,-99.99,,2013-02-12 20:01:00,
2013-02-12 15:11:00,83.0,64.0,29.97,SW,219,7.0,11.0,52,99.99,,,-99.99,,2013-02-12 20:11:00,
2013-02-12 15:21:00,83.0,64.0,29.97,SW,219,7.0,11.0,52,99.99,,,-99.99,,2013-02-12 20:21:00,
2013-02-12 15:32:00,82.0,64.0,29.97,SSW,208,8.0,14.0,54,99.99,,,-99.99,,2013-02-12 20:32:00,
2013-02-12 15:41:00,83.0,65.0,29.96,South,190,6.0,11.0,55,99.99,,,-99.99,,2013-02-12 20:41:00,
2013-02-12 15:52:00,83.0,65.0,29.96,South,190,6.0,11.0,55,99.99,,,-99.99,,2013-02-12 20:52:00,
2013-02-12 16:01:00,82.0,65.0,29.97,SW,222,6.0,12.0,56,99.99,,,-99.99,,2013-02-12 21:01:00,
2013-02-12 16:11:00,82.0,64.0,29.97,WSW,239,8.0,16.0,55,99.99,,,-99.99,,2013-02-12 21:11:00,
2013-02-12 16:21:00,82.0,64.0,29.97,WSW,239,8.0,16.0,55,99.99,,,-99.99,,2013-02-12 21:21:00,
2013-02-12 16:31:00,82.0,65.0,29.97,SSW,211,7.0,13.0,57,99.99,,,-99.99,,2013-02-12 21:31:00,
2013-02-12 16:42:00,82.0,67.0,29.97,WSW,240,6.0,12.0,60,99.99,,,-99.99,,2013-02-12 21:42:00,
2013-02-12 16:52:00,82.0,67.0,29.97,WSW,240,6.0,12.0,60,99.99,,,-99.99,,2013-02-12 21:52:00,
2013-02-12 17:01:00,81.0,65.0,29.96,South,187,6.0,12.0,59,99.99,,,-99.99,,2013-02-12 22:01:00,
2013-02-12 17:12:00,81.0,66.0,29.97,SW,218,7.0,15.0,60,99.99,,,-99.99,,2013-02-12 22:12:00,
2013-02-12 17:21:00,81.0,66.0,29.97,SW,218,7.0,15.0,60,99.99,,,-99.99,,2013-02-12 22:21:00,
2013-02-12 17:32:00,80.0,66.0,29.97,SW,214,6.0,11.0,62,99.99,,,-99.99,,2013-02-12 22:32:00,
2013-02-12 17:42:00,80.0,67.0,29.97,SW,219,5.0,8.0,64,99.99,,,-99.99,,2013-02-12 22:42:00,
2013-02-12 17:51:00,80.0,67.0,29.97,SW,219,5.0,8.0,64,99.99,,,-99.99,,2013-02-12 22:51:00,
2013-02-12 18:01:00,79.0,67.0,29.96,SSW,211,6.0,11.0,66,99.99,,,-99.99,,2013-02-12 23:01:00,
2013-02-12 18:11:00,78.0,67.0,29.97,SW,226,5.0,9.0,68,99.99,,,-99.99,,2013-02-12 23:11:00,
2013-02-12 18:21:00,78.0,67.0,29.97,SW,226,5.0,9.0,68,99.99,,,-99.99,,2013-02-12 23:21:00,
2013-02-12 18:32:00,77.0,66.0,29.97,SW,215,4.0,7.0,69,99.99,,,-99.99,,2013-02-12 23:32:00,
2013-02-12 18:42:00,77.0,66.0,29.97,SW,215,4.0,7.0,69,99.99,,,-99.99,,2013-02-12 23:42:00,
2013-02-12 18:52:00,76.0,66.0,29.97,SSW,212,4.0,7.0,71,99.99,,,-99.99,,2013-02-12 23:52:00,
2013-02-12 19:02:00,76.0,67.0,29.97,SW,226,6.0,10.0,73,99.99,,,-99.99,,2013-02-13 00:02:00,
2013-02-12 19:11:00,76.0,67.0,29.97,SW,226,6.0,10.0,73,99.99,,,-99.99,,2013-02-13 00:11:00,
2013-02-12 19:21:00,75.0,67.0,29.97,SW,224,5.0,9.0,75,99.99,,,-99.99,,2013-02-13 00:21:00,
2013-02-12 19:32:00,75.0,67.0,29.98,WSW,246,4.0,8.0,76,99.99,,,-99.99,,2013-02-13 00:32:00,
2013-02-12 19:42:00,75.0,67.0,29.98,WSW,246,4.0,8.0,76,99.99,,,-99.99,,2013-02-13 00:42:00,
2013-02-12 19:52:00,74.0,68.0,29.98,SW,228,4.0,7.0,81,99.99,,,-99.99,,2013-02-13 00:52:00,
2013-02-12 20:01:00,73.0,69.0,29.98,WSW,248,4.0,7.0,86,99.99,,,-99.99,,2013-02-13 01:01:00,
2013-02-12 20:11:00,73.0,69.0,29.98,WSW,248,4.0,7.0,86,99.99,,,-99.99,,2013-02-13 01:11:00,
2013-02-12 20:21:00,73.0,70.0,29.99,WSW,246,4.0,6.0,90,99.99,,,-99.99,,2013-02-13 01:21:00,
2013-02-12 20:31:00,72.0,71.0,29.99,SW,233,4.0,7.0,96,99.99,,,-99.99,,2013-02-13 01:31:00,
2013-02-12 20:42:00,72.0,71.0,29.99,SW,217,4.0,9.0,98,99.99,,,-99.99,,2013-02-13 01:42:00,
2013-02-12 20:52:00,72.0,71.0,29.99,SW,217,4.0,9.0,98,99.99,,,-99.99,,2013-02-13 01:52:00,
2013-02-12 21:01:00,72.0,72.0,29.99,SW,221,3.0,7.0,99,99.99,,,-99.99,,2013-02-13 02:01:00,
2013-02-12 21:11:00,71.0,71.0,29.99,WSW,243,3.0,7.0,100,99.99,,,-99.99,,2013-02-13 02:11:00,
2013-02-12 21:22:00,71.0,71.0,29.99,WSW,243,3.0,7.0,100,99.99,,,-99.99,,2013-02-13 02:22:00,
2013-02-12 21:31:00,71.0,71.0,29.99,South,190,3.0,6.0,100,99.99,,,-99.99,,2013-02-13 02:31:00,
2013-02-12 21:42:00,71.0,71.0,29.99,South,190,3.0,6.0,100,99.99,,,-99.99,,2013-02-13 02:42:00,
2013-02-12 21:52:00,71.0,71.0,30.00,South,181,4.0,8.0,100,99.99,,,-99.99,,2013-02-13 02:52:00,
2013-02-12 22:01:00,70.0,70.0,30.00,SW,221,4.0,8.0,100,99.99,,,-99.99,,2013-02-13 03:01:00,
2013-02-12 22:11:00,70.0,70.0,29.99,South,183,4.0,8.0,100,99.99,,,-99.99,,2013-02-13 03:11:00,
2013-02-12 22:21:00,70.0,70.0,29.99,South,183,4.0,8.0,100,99.99,,,-99.99,,2013-02-13 03:21:00,
2013-02-12 22:32:00,70.0,70.0,29.99,SW,215,4.0,6.0,100,99.99,,,-99.99,,2013-02-13 03:32:00,
2013-02-12 22:42:00,70.0,70.0,29.99,SW,215,4.0,6.0,100,99.99,,,-99.99,,2013-02-13 03:42:00,
2013-02-12 22:51:00,70.0,70.0,30.00,SSW,212,2.0,6.0,100,99.99,,,-99.99,,2013-02-13 03:51:00,
2013-02-12 23:01:00,69.0,69.0,30.00,SW,224,4.0,8.0,100,99.99,,,-99.99,,2013-02-13 04:01:00,
2013-02-12 23:11:00,69.0,69.0,30.00,SW,224,4.0,8.0,100,99.99,,,-99.99,,2013-02-13 04:11:00,
2013-02-12 23:21:00,69.0,69.0,29.99,South,179,4.0,9.0,100,99.99,,,-99.99,,2013-02-13 04:21:00,
2013-02-12 23:32:00,69.0,69.0,29.99,SSW,197,4.0,8.0,100,99.99,,,-99.99,,2013-02-13 04:32:00,
2013-02-12 23:41:00,69.0,69.0,29.99,SSW,208,3.0,7.0,100,99.99,,,-99.99,,2013-02-13 04:41:00,
2013-02-12 23:52:00,69.0,69.0,29.99,SSW,208,3.0,7.0,100,99.99,,,-99.99,,2013-02-13 04:52:00,